Wind_Speed
79 84 86 84 86 91 96 99 102 108 111 114 120 126 126 128 136 145 119 111 85 77 71 65 62 59 57
86 84 88 90 93 99 103 110 113 115 116 124 126 132 138 131 141 142 115 109 87 78 71 66 62 58 56
87 90 94 99 102 107 114 118 122 123 127 131 135 139 146 140 145 128 121 91 87 77 72 67 63 59 55
93 98 105 107 109 115 120 124 126 129 133 138 140 143 146 152 153 125 101 94 80 75 69 66 62 58 55
102 107 109 112 116 119 123 130 134 136 139 138 145 146 147 148 138 125 96 89 80 73 67 62 60 56 52
110 114 118 116 119 126 132 135 139 140 139 143 148 152 154 139 128 102 95 86 77 70 65 60 56 53 50
112 114 116 123 132 136 137 138 142 142 144 148 155 151 152 132 111 102 88 80 71 62 56 52 50 49 47
117 123 132 135 139 140 142 140 141 148 150 152 153 150 137 124 101 89 82 71 63 55 49 45 43 41 41
132 135 137 140 141 142 139 142 147 147 155 157 147 139 123 102 94 85 76 62 54 47 42 39 37 36 36
136 137 138 134 141 146 149 146 148 152 154 150 136 124 104 97 86 74 64 53 45 40 35 34 33 33 32
133 134 139 144 144 150 151 154 155 151 146 142 125 109 95 86 74 60 53 46 41 35 32 31 29 28 28
140 145 149 150 151 157 156 151 155 154 141 126 104 95 84 75 61 52 47 43 37 34 31 28 28 26 27
146 151 154 157 157 154 159 155 146 134 119 104 92 84 76 64 54 50 45 42 36 32 30 28 27 26 27
155 158 158 161 159 156 157 145 134 113 100 93 85 77 66 56 52 46 43 41 35 31 31 30 29 29 29
162 158 159 153 154 147 135 125 109 93 90 84 77 69 59 53 50 46 43 39 34 30 32 31 30 29 30
156 163 156 136 134 134 110 99 92 86 83 79 72 62 53 51 48 44 43 40 35 30 31 32 31 30 30
144 151 140 121 109 96 94 88 84 83 78 74 67 57 53 50 46 43 42 41 37 33 32 34 34 34 35
Wind_Direction
292 293 295 294 295 298 301 303 305 308 312 314 314 316 321 319 325 329 326 326 319 315 311 306 303 301 297
290 291 288 290 295 297 300 304 306 309 310 313 314 316 320 324 326 324 325 321 317 312 309 305 302 300 296
286 287 288 292 294 300 301 304 307 307 309 312 313 317 323 322 327 326 323 318 313 309 306 302 299 295 291
283 287 290 294 297 299 301 303 304 306 309 312 315 319 323 324 324 324 320 317 310 306 302 299 295 292 289
286 291 295 295 297 299 301 301 304 306 309 314 315 319 322 323 321 319 316 312 308 304 299 294 290 286 282
286 291 295 295 295 297 301 304 305 307 310 312 316 318 321 320 318 316 314 310 307 302 297 290 285 280 277
288 289 287 289 298 299 302 304 306 305 310 312 315 317 319 318 317 314 311 309 305 302 297 290 282 278 273
286 287 290 294 295 300 302 306 306 308 312 313 316 319 316 316 313 312 310 307 303 299 294 287 281 275 270
288 290 292 295 296 302 299 303 306 309 311 315 315 317 316 312 312 310 309 305 302 297 292 286 279 272 266
287 292 292 296 295 300 299 303 305 310 311 311 313 312 313 311 310 309 307 305 301 297 292 286 278 269 261
288 290 291 295 296 297 302 302 305 310 310 310 310 311 310 309 308 305 304 304 302 298 295 287 276 266 255
288 289 292 292 297 299 303 303 304 307 307 308 307 309 308 307 304 302 301 301 299 297 294 285 275 262 253
287 289 293 293 297 300 302 303 303 304 306 305 307 307 306 303 301 300 298 298 295 292 289 277 272 265 255
290 289 291 293 299 297 299 302 300 302 302 304 306 305 303 300 299 295 293 293 291 287 282 272 267 260 255
289 289 293 295 293 294 299 298 299 301 303 304 304 304 300 298 296 293 290 289 286 283 278 270 265 257 253
287 290 290 292 289 294 295 296 298 300 301 302 303 302 296 295 292 290 288 287 284 280 277 270 263 257 254
288 287 291 290 292 290 293 295 298 299 300 301 301 298 294 294 289 288 283 281 280 275 273 270 261 255 252
Height
10679 10676 10673 10671 10667 10663 10659 10655 10652 10647 10642 10636 10628 10621 10612 10597 10586 10568 10556 10544 10536 10529 10523 10518 10514 10510 10507
10668 10661 10655 10654 10649 10644 10639 10634 10630 10626 10620 10616 10607 10598 10592 10578 10564 10553 10537 10529 10517 10510 10503 10498 10496 10494 10491
10650 10645 10642 10638 10633 10628 10619 10613 10609 10604 10600 10592 10584 10572 10565 10553 10540 10526 10517 10504 10499 10490 10485 10480 10477 10475 10473
10632 10629 10624 10620 10616 10609 10603 10597 10591 10586 10580 10571 10563 10552 10542 10527 10518 10504 10495 10489 10479 10472 10466 10461 10458 10457 10456
10618 10611 10609 10602 10597 10590 10588 10578 10573 10567 10557 10551 10549 10533 10524 10510 10496 10487 10475 10467 10460 10453 10446 10442 10439 10438 10438
10599 10595 10589 10584 10574 10573 10568 10560 10554 10550 10540 10531 10522 10510 10500 10489 10477 10463 10457 10447 10438 10431 10425 10422 10419 10419 10420
10580 10575 10567 10562 10561 10554 10548 10544 10540 10532 10524 10511 10501 10490 10480 10467 10456 10447 10436 10426 10418 10412 10407 10403 10401 10401 10403
10563 10557 10549 10544 10538 10537 10529 10525 10517 10507 10503 10490 10482 10468 10455 10447 10436 10426 10417 10409 10401 10395 10391 10387 10386 10386 10387
10539 10537 10531 10528 10517 10517 10507 10506 10496 10490 10474 10470 10460 10452 10439 10424 10417 10406 10399 10392 10385 10381 10377 10374 10373 10373 10374
10519 10519 10506 10507 10496 10498 10485 10488 10473 10471 10464 10453 10442 10433 10419 10408 10400 10390 10382 10377 10372 10368 10365 10363 10362 10362 10363
10499 10495 10487 10486 10482 10473 10470 10462 10456 10450 10442 10430 10422 10415 10404 10393 10385 10376 10369 10366 10362 10358 10355 10354 10352 10353 10354
10484 10473 10469 10464 10461 10456 10448 10441 10435 10431 10422 10413 10404 10395 10386 10377 10370 10364 10359 10356 10353 10349 10347 10345 10344 10344 10345
10462 10456 10452 10439 10440 10435 10428 10421 10415 10408 10399 10394 10385 10378 10368 10361 10356 10351 10347 10345 10342 10340 10339 10337 10337 10337 10338
10442 10430 10432 10424 10416 10411 10406 10399 10393 10386 10380 10373 10367 10360 10352 10346 10342 10338 10336 10334 10332 10330 10329 10329 10329 10329 10330
10414 10411 10407 10400 10394 10391 10386 10377 10370 10366 10359 10353 10349 10342 10335 10331 10328 10324 10323 10322 10321 10320 10319 10320 10320 10321 10323
10388 10387 10388 10378 10376 10370 10363 10355 10350 10346 10341 10335 10331 10324 10319 10316 10313 10311 10310 10309 10308 10307 10309 10310 10310 10312 10314
10354 10364 10360 10353 10349 10346 10341 10334 10330 10326 10322 10317 10312 10308 10304 10302 10300 10298 10297 10296 10296 10296 10297 10298 10300 10301 10304